Flag for U.S.A. Weather past 2 weeks in Vevay, Indiana, U.S.A.

Now
22 °F

Partly sunny.


Feels Like: 9 °F
Forecast: 25 / 35 °F
Wind: 15 mph from Northwest

Location: Cincinnati / Northern Kentucky International Airport

Current Time: Jan 26, 2015 at 11:46:14 AM

Latest Report: Jan 26, 2015 at 10:52 AM


Visibility: 10 mi

Pressure: 29.95 "Hg

Humidity: 75%

Dew point: 15 °F

Location of VevayLocation

Historic Weather in Vevay — Graph

°F

Vevay temperature yesterday

Maximum temperature yesterday: 41 °F (at 11:52 AM)
Minimum temperature yesterday: 31 °F (at 11:52 PM)
Average temperature yesterday: 38 °F

Past Weeks' High & Low Weather Summary

 TemperatureHumidityPressure
High54 °F (Jan 20, 2:52 PM)93% (Jan 18, 4:52 AM)30.60 "Hg (Jan 18, 4:52 AM)
Low20 °F (Jan 14, 3:52 AM)31% (Jan 11, 1:52 PM)29.65 "Hg (Jan 25, 3:52 PM)
Average34 °F69%30.10 "Hg
* Reported Jan 11 10:52 AM — Jan 26 10:52 AM, Vevay, Weather by CustomWeather, © 2014

Note: Actual official high and low records may vary slightly from our data, if they occured in-between our weather recording intervals... More about our weather records

Advertising

Vevay weather history for previous 24 hours

 ConditionsComfort  
Time TempWeatherWind HumidityBarometerVisibility
10:52 AM
Jan 26
22 °FPartly sunny.15 mph75%29.95 "Hg10 mi
8:52 AM21 °FBroken clouds.12 mph81%29.89 "Hg10 mi
7:52 AM21 °FMostly cloudy.17 mph81%29.87 "Hg10 mi
6:52 AM21 °FOvercast.17 mph81%29.85 "Hg10 mi
5:52 AM21 °FMostly cloudy.17 mph81%29.83 "Hg10 mi
4:52 AM23 °FMostly cloudy.14 mph81%29.81 "Hg9 mi
3:59 AM25 °FIce fog.20 mph80%29.77 "Hg2 mi
2:58 AM25 °FLight snow. Ice fog.16 mph86%29.74 "Hg1 mi
1:52 AM27 °FLight snow. Ice fog.15 mph89%29.74 "Hg2 mi
12:52 AM28 °FLight snow. Ice fog.14 mph89%29.72 "Hg2 mi
11:52 PM
Jan 25
31 °FLight snow. Ice fog.14 mph92%29.70 "Hg2 mi
10:52 PM35 °FLight snow. Fog.18 mph88%29.69 "Hg2 mi
9:52 PM39 °FLight rain. Fog.12 mph93%29.68 "Hg2 mi
8:52 PM39 °FLight rain. Fog.6 mph93%29.69 "Hg2 mi
7:52 PM39 °FRain. Fog.7 mph93%29.69 "Hg3 mi
6:52 PM39 °FLight rain. Fog.5 mph93%29.68 "Hg4 mi
5:52 PM39 °FLight rain. Fog.3 mph89%29.66 "Hg5 mi
4:52 PM39 °FLight rain. Fog.7 mph89%29.65 "Hg3 mi
3:52 PM40 °FLight rain. Fog.8 mph86%29.65 "Hg4 mi
2:52 PM40 °FLight rain. Fog.10 mph86%29.66 "Hg5 mi
1:52 PM40 °FLight rain. Mostly cloudy.7 mph80%29.67 "Hg8 mi
12:52 PM41 °FLight rain. Mostly cloudy.7 mph76%29.70 "Hg10 mi
11:52 AM41 °FMostly cloudy.8 mph70%29.71 "Hg10 mi
Weather by CustomWeather, © 2014

See weather overviewHow to use our weather pages